Home > Weather > Uelzen > Past weeks

Flag for Germany Weather for the Past 2 Weeks in Uelzen, Lower Saxony, Germany

Now
48 °F

Passing clouds.


Feels Like: 46 °F
Forecast: 44 / 71 °F
Wind: 6 mph from East

Location: Fassberg

Current Time: May 6, 2016 at 12:37:44 AM

Latest Report: May 5, 2016 at 11:20 PM


Visibility: N/A

Pressure: 30.21 "Hg

Humidity: 66%

Dew Point: 37 °F

Location of UelzenLocation

Historic Weather in Uelzen — Graph

°F

Uelzen Temperature Yesterday

Maximum temperature yesterday: 64 °F (at 3:20 PM)
Minimum temperature yesterday: 30 °F (at 4:20 AM)
Average temperature yesterday: 50 °F

High & Low Weather Summary for the Past Weeks

 TemperatureHumidityPressure
High70 °F (May 2, 4:20 PM)100% (Apr 22, 5:20 AM)30.39 "Hg (Apr 22, 5:20 AM)
Low27 °F (Apr 21, 5:20 AM)25% (May 2, 4:20 PM)29.39 "Hg (Apr 26, 1:20 PM)
Average43 °F73%29.97 "Hg
* Reported Apr 20 11:20 PM — May 5 11:20 PM, Uelzen, Weather by CustomWeather, © 2016

Note: Actual official high and low records may vary slightly from our data, if they occured in-between our weather recording intervals... More about our weather records

Advertising

Uelzen Weather History for the Previous 24 Hours

Scroll right to see more
 ConditionsComfort  
Time TempWeatherWind HumidityBarometerVisibility
11:20 PM
Thu, May 5
48 °FPassing clouds.6 mph66%30.21 "HgN/A
10:20 PM48 °FPassing clouds.7 mph66%30.21 "HgN/A
9:20 PM52 °FScattered clouds.6 mph62%30.21 "HgN/A
8:20 PM59 °FPassing clouds.7 mph48%30.21 "HgN/A
7:20 PM63 °FPassing clouds.10 mph39%30.21 "HgN/A
6:20 PM64 °FPassing clouds.10 mph34%30.24 "HgN/A
5:20 PM64 °FPassing clouds.12 mph32%30.24 "HgN/A
4:20 PM64 °FPassing clouds.12 mph34%30.27 "HgN/A
3:20 PM64 °FPassing clouds.13 mph32%30.30 "HgN/A
2:20 PM63 °FPassing clouds.10 mph32%30.33 "HgN/A
1:20 PM61 °FScattered clouds.8 mph31%30.33 "HgN/A
12:20 PM59 °FPartly sunny.6 mph36%30.36 "HgN/A
11:20 AM59 °FPartly sunny.5 mph36%30.36 "HgN/A
10:20 AM55 °FPartly sunny.6 mph41%30.39 "HgN/A
9:20 AM54 °FPassing clouds.5 mph47%30.39 "HgN/A
8:20 AM48 °FPassing clouds.1 mph66%30.39 "HgN/A
7:20 AM36 °FPassing clouds.1 mph81%30.39 "HgN/A
6:20 AM30 °FPassing clouds.2 mph86%30.39 "HgN/A
5:20 AM30 °FFog.2 mph86%30.39 "HgN/A
4:20 AM30 °FChilly.3 mph93%30.39 "HgN/A
3:20 AM32 °FChilly.1 mph93%30.39 "HgN/A
2:20 AM34 °FChilly.2 mph87%30.39 "HgN/A
1:20 AM36 °FPassing clouds.1 mph87%30.39 "HgN/A
12:20 AM37 °FPassing clouds.No wind87%30.39 "HgN/A
Weather by CustomWeather, © 2016

See weather overviewHow to use our weather pages